Regional Weather Roundup
Issued by NWS Grand Forks, ND

Home | Current Version | Previous Version | Text Only | Print | Product List | Glossary On
Versions: 1 2 3 4 5 6 7 8 9 10 11 12 13 14 15 16 17 18 19 20 21 22 23 24 25 26 27 28 29 30 31 32 33 34 35 36 37 38 39 40 41 42 43 44 45 46 47 48 49 50
000
ASUS43 KFGF 191731
RWRFGF
PRAIRIE TO PINES  WEATHER ROUNDUP
NATIONAL WEATHER SERVICE EASTERN NORTH DAKOTA/GRAND FORKS ND
1200 PM CDT SAT AUG 19 2017

 **SATELLITE DATA USED TO AUGMENT SKY COVER AT AUTOMATED STATIONS**
 *****  WEATHER ACROSS EASTERN NORTH DAKOTA  *****

CITY           SKY/WX    TMP DP  RH WIND       PRES   REMARKS
GRAND FORKS    FAIR      81  61  50 S14       29.80F
GRAND FRKS AFB FAIR      81  60  47 SW10      29.80F
DEVILS LAKE    FAIR      80  56  43 S22       29.78F
FARGO          FAIR      77  64  64 S12       29.85F
WAHPETON ARPT  FAIR      75  63  64 S8        29.89F
$$

 ***** WEATHER ACROSS CENTRAL AND WESTERN NORTH DAKOTA  *****

CITY           SKY/WX    TMP DP  RH WIND       PRES   REMARKS
BISMARCK       FAIR      79  61  53 S12       29.78F
MINOT          FAIR      78  57  48 S13       29.70F
JAMESTOWN      FAIR      78  62  57 S14       29.82F
MINOT AFB      FAIR      80  57  45 S10       29.68F
GARRISON         N/A     79  56  45 SW12      29.74F
WILLISTON      FAIR      82  50  32 W12       29.74R
DICKINSON      FAIR      80  49  33 W12       29.78S
HETTINGER      FAIR      81  52  36 W15       29.83F
$$

 *****  OTHER AIRPORT OBSERVATIONS IN OUR AREA  *****

CITY           SKY/WX    TMP DP  RH WIND       PRES   REMARKS
WALHALLA       FAIR      82  81  94 MISG      29.75F HX  95
GRAFTON AIRPOR FAIR      81  61  50 S12       29.79F
VALLEY CITY AR   N/A     77  61  57 S17       29.86S
CANDO          FAIR      82  57  42 S18       29.77F
CAVALIER APRT  FAIR      81  63  54 S12       29.76S
GWINNER        SUNNY     77  66  69 S7G15     29.87F
SHEYENNE NWR     N/A     78  63  59 S8        29.95
ROLLA          FAIR      79  59  50 S18       29.75F
 ***** THE ABOVE OBSERVATIONS ARE NON NWS ARE NOT QUALITY
       CONTROLLED AND MAY MIS-REPORT RAIN FOR SNOW...
$$

  *****  WEATHER ACROSS NORTHERN MINNESOTA  *****

CITY           SKY/WX    TMP DP  RH WIND       PRES   REMARKS
FLAG ISLAND    FAIR      75  63  64 S5        29.80S HAZE
WARROAD        FAIR      79  64  61 S5        29.82S
ROSEAU         FAIR      81  63  54 SW8       29.81F
HALLOCK        FAIR      81  59  47 S10       29.77F
THF RVR FALLS  FAIR      79  58  48 S12       29.85F
BAUDETTE       FAIR      80  56  43 SW8       29.83F
WASKISH        FAIR      77  61  57 SW8       29.86F
CROOKSTON      FAIR      79  61  53 S12       29.82F
STEPHEN NDAWN    N/A     79  63  57 S9          N/A
GREENBUSH NDAW   N/A    N/A N/A N/A SW6         N/A
$$
  *****  WEATHER ACROSS CENTRAL AND WEST MINNESOTA  *****

CITY           SKY/WX    TMP DP  RH WIND       PRES   REMARKS
FOSSTON        FAIR      79  57  47 S10       29.87F
BEMIDJI        FAIR      77  55  47 SW8       29.89S
PARK RAPIDS    FAIR      77  61  57 SW7       29.91F
ELBOW LAKE     FAIR      74  62  65 SE9       29.92F HAZE
WADENA         FAIR      75  61  60 SW6       29.92F
DETROIT LAKES  FAIR      75  61  60 S7        29.91F
MOORHEAD       FAIR      75  64  69 S8        29.86F
FERGUS FALLS   FAIR      75  63  64 S12       29.89F
MORRIS MN      FAIR      75  64  69 SE12      29.91F
STAPLES        FAIR      75  59  57 S7        29.93F
$$
  *****  WEATHER ELSEWHERE ACROSS MINNESOTA  *****

CITY           SKY/WX    TMP DP  RH WIND       PRES   REMARKS
DULUTH         FAIR      76  60  57 W10       29.91S
INTRNTL FALLS  FAIR      76  59  55 W7        29.85F
ELY            FAIR      75  55  50 W9        29.89S
CLOQUET        FAIR      77  55  47 W8        29.91F
WHEATON        FAIR      75  63  64 SE8       29.91F
BRAINERD       FAIR      75  63  66 SW9       29.94S
HIBBING        FAIR      74  60  61 VRB6      29.90S
ALEXANDRIA     FAIR      74  61  63 SW8       29.96S
SAINT CLOUD    FAIR      75  62  64 SW7       29.95F
MINNEAPOLIS    FAIR      73  60  63 W7        29.97F
$$

  *****  WEATHER ACROSS SOUTH DAKOTA  *****

CITY           SKY/WX    TMP DP  RH WIND       PRES   REMARKS
SIOUX FALLS    FAIR      74  64  71 SE7       29.96S
BROOKINGS      FAIR      72  63  73 S10       29.96F
WATERTOWN      FAIR      73  62  68 S9        29.93F
HURON          FAIR      75  61  61 SE15      29.90F
SISSETON         N/A     78  63  59 S13       29.89S
ABERDEEN       FAIR      76  63  64 S16       29.88F
MITCHELL       FAIR      76  62  62 S13       29.92F
PIERRE         FAIR      84  58  40 S14       29.81F
MOBRIDGE       FAIR      79  63  57 S9        29.80F
RAPID CITY     FAIR      85  56  37 CALM      29.87S
$$

  *****  SOME WEATHER IN NEARBY STATES *****

CITY           SKY/WX    TMP DP  RH WIND       PRES   REMARKS
GLASGOW MT     FAIR      71  44  37 NW16G26   29.87R
GREAT FALLS MT FAIR      63  43  48 CALM      30.04F
CHEYENNE WY    FAIR      83  33  16 W10       30.15F
SCOTTSBLUFF NE FAIR      83  47  28 NW10      29.97F
OMAHA NE       FAIR      80  62  54 CALM      29.98S
DES MOINES IA  FAIR      78  65  63 NE6       29.96S
DAVENPORT IA   FAIR      79  61  53 E7        30.00F
CHICAGO IL     FAIR      80  56  43 VRB6      29.96F
EAU CLAIRE WI  FAIR      75  59  57 W9        29.95F
LA CROSSE WI   FAIR      78  60  53 CALM      29.97F
$$

  *****  SOME NATIONAL WEATHER *****

CITY           SKY/WX    TMP DP  RH WIND       PRES   REMARKS
LA GUARDIA NY  PTSUNNY   85  64  49 SW6       29.85S
RALEIGH NC     FAIR      89  65  44 NW6       29.98S HX  91
ATLANTA GA     FAIR      85  65  51 VRB7      30.04F
NEW ORLEANS LA FAIR      91  78  65 N7        30.01F HX 106
OKLAHOMA CITY  FAIR      90  72  55 SW9       30.00F HX  97
ALBUQUERQUE NM PTSUNNY   79  52  38 SW9       30.22S
SALT LAKE CITY FAIR      83  42  23 CALM      30.08S
LOS ANGELES CA FAIR      70  61  73 SW5       29.98S
BOISE ID       FAIR      72  43  35 NW8       30.05S
SEATTLE WA     FAIR      65  52  62 VRB5      30.22S
$$

*** WEATHER ACROSS MANITOBA...SASKATCHEWAN AND ONTARIO ***
                ***ONTARIO***

CITY           SKY/WX    TMP DP  RH WIND       PRES   REMARKS
GERALDTON      MOSUNNY   73  61  64 W7        29.77S
THUNDER BAY    MOSUNNY   77  63  61 W8        29.81F
SIOUX LOOKOUT  MOSUNNY   77  59  53 SW7       29.80F
TORONTO        PTSUNNY   75  59  57 W16G29    29.83S
BIG TROUT LK   SUNNY     72  59  64 W7        29.64F
PICKLE LAKE    MOSUNNY   75  50  41 W8        29.75S
DRYDEN         SUNNY     77  54  44 W12       29.82S
KENORA         PTSUNNY   77  54  44 W8        29.82S
$$
                *** MANITOBA***

CITY           SKY/WX    TMP DP  RH WIND       PRES   REMARKS
BRANDON        PTSUNNY   81  61  50 S7        29.68F
DAUPHIN        SUNNY     82  57  42 S8        29.60F
ISLAND LAKE    MOSUNNY   77  61  57 SW2       29.65
PILOT MOUND      N/A     81  55  41 S16G22      N/A
THE PAS        MOSUNNY   79  55  44 SE10G17   29.53F
THOMPSON       MOSUNNY   72  57  60 E5        29.60F
WINNIPEG       PTSUNNY   81  59  47 SW10      29.73F
LYNN LAKE      PTSUNNY   63  59  88 MISG      29.56S
CHURCHILL      CLOUDY    52  52 100 N8        29.64S FOG
GILLAM         MOSUNNY   64  55  72 CALM      29.63F
$$
                ***SASKATCHEWAN***

CITY           SKY/WX    TMP DP  RH WIND       PRES   REMARKS
ESTEVAN        PTSUNNY   79  50  36 W14G22    29.70R
KINDERSLEY     PTSUNNY   61  41  48 NW16G23   29.91S
LLOYDMINSTER   MOSUNNY   59  45  58 W14G22    29.85R
PRINCE ALBERT  PTSUNNY   66  52  59 NW15G26   29.72R
REGINA         MOSUNNY   73  52  46 NW25G38   29.72R
YORKTON        SUNNY     75  55  50 SW10      29.59F
N. BATTLEFORD  SUNNY     63  46  55 W15G23    29.84R
LA RONGE       PTSUNNY   61  55  82 W9        29.65F
SASKATOON      PTSUNNY   64  50  59 NW22G29   29.79R
SWIFT CURRENT  SUNNY     63  45  51 NW23G29   29.89R
$$
NOTE: THESE ARE AUTOMATED STATIONS WITH LIMITED QUALITY CONTROL
      "FAIR" INDICATES FEW OR NO CLOUDS BELOW 12,000 FEET WITH NO
      SIGNIFICANT WEATHER AND/OR OBSTRUCTIONS TO VISIBILITY.
      SKY/WX - SKY CONDITION AND SIGNIFICANT WEATHER.
      TMP - AIR TEMPERATURE.    DP   - DEWPOINT TEMPERATURE.
      RH  - RELATIVE HUMIDITY.  PRES - PRESSURE.
      HX  - HEAT INDEX.         WCI  - WIND CHILL INDEX.
$




USA.gov is the U.S. government's official web portal to all federal, state and local government web resources and services.